Location: Newark
(47.5833°N, 8.1500°E)
Time: 12:27:28
(UTC+00:00)

Transit 2A - Pass Details

Date: 27 October 2020
Orbit: 595 x 964 km, 66.7° (Epoch: 27 November)

Event Time Altitude Azimuth Distance (km) Brightness Sun altitude
Rises 09:09:45 0° 325° (NW) 3,490 8.8 23.6°
Reaches altitude 10° 09:12:22 10° 326° (NNW) 2,495 8.2 23.9°
Maximum altitude 09:18:07 84° 54° (NE) 802 6.6 24.4°
Drops below altitude 10° 09:23:15 10° 144° (SE) 2,227 10.3 24.8°
Sets 09:25:29 0° 145° (SE) 3,090 10.5 25.0°
